Powrót do katalogu

NAVSTAR 76

USA 266

AktywnyNawigacjaHEO
NORAD 41328·PAYLOAD·🇺🇸 United States

Wystrzelony Feb 5, 2016 z Cape Canaveral Space Force Station

Loading…

Następne Przeloty (najbliższe 24 godziny)

TLE

ŚwieżeSource: CelesTrak SupGP

Epoka: Sep 17, 2026, 16:38 UTC

1 41328C 16007A   26260.69312500  .00000000  00000+0  00000+0 0  2603
2 41328  55.5864  85.7925 0097768 247.2529 177.4245  2.00572804    16

Śledź NAVSTAR 76 w czasie rzeczywistym z AllMySat

Download on the App Store